• In Hungary
  • List of Countries
  • For 7 days
  • Water Temperature
  • Satellite Maps
  • Weather Map
  • News
  • Weather Widgets
  • user-avatar
    Login

    Hourly Weather Berezugi

    Today, 15 August, Wednesday

    Time Temperature Precipitation Wind Pressure Humidity
    00:00 +14°C° 0 mm 2 mps 739 mmHg 78%
    01:00 +14°C° 0 mm 2 mps 739 mmHg 79%
    02:00 +14°C° 0 mm 2 mps 739 mmHg 79%
    03:00 +14°C° 0.7 mm 2 mps 738 mmHg 84%
    04:00 +14°C° 0.7 mm 2 mps 738 mmHg 89%
    05:00 +14°C° 0.7 mm 2 mps 738 mmHg 94%
    06:00 +15°C° 1.5 mm 2 mps 737 mmHg 95%
    07:00 +16°C° 1.5 mm 2 mps 737 mmHg 96%
    08:00 +16°C° 1.5 mm 2 mps 736 mmHg 97%
    09:00 +17°C° 0.7 mm 2 mps 736 mmHg 96%
    10:00 +18°C° 0.7 mm 2 mps 736 mmHg 95%
    11:00 +19°C° 0.7 mm 2 mps 736 mmHg 94%
    12:00 +19°C° 0.2 mm 2 mps 736 mmHg 94%
    13:00 +20°C° 0.2 mm 2 mps 736 mmHg 93%
    14:00 +20°C° 0.2 mm 2 mps 736 mmHg 92%
    15:00 +20°C° 0.9 mm 2 mps 736 mmHg 92%
    16:00 +19°C° 0.9 mm 2 mps 736 mmHg 93%
    17:00 +19°C° 0.9 mm 3 mps 736 mmHg 93%
    18:00 +18°C° 0.4 mm 2 mps 737 mmHg 94%
    19:00 +18°C° 0.4 mm 2 mps 737 mmHg 96%
    20:00 +17°C° 0.4 mm 2 mps 737 mmHg 98%
    21:00 +16°C° 0.1 mm 2 mps 737 mmHg 98%
    22:00 +16°C° 0.1 mm 1 mps 738 mmHg 98%
    23:00 +15°C° 0.1 mm 1 mps 738 mmHg 98%

    Tomorrow, 16 August, Thursday

    Time Temperature Precipitation Wind Pressure Humidity
    00:00 +15°C° 0 mm 1 mps 738 mmHg 98%
    01:00 +15°C° 0 mm 1 mps 739 mmHg 98%
    02:00 +15°C° 0 mm 1 mps 739 mmHg 98%
    03:00 +15°C° 0 mm 1 mps 740 mmHg 98%
    04:00 +15°C° 0 mm 1 mps 740 mmHg 98%
    05:00 +15°C° 0 mm 1 mps 740 mmHg 98%
    06:00 +15°C° 0 mm 1 mps 741 mmHg 97%
    07:00 +16°C° 0 mm 1 mps 741 mmHg 95%
    08:00 +16°C° 0 mm 1 mps 741 mmHg 93%
    09:00 +18°C° 0 mm 1 mps 742 mmHg 87%
    10:00 +19°C° 0 mm 1 mps 742 mmHg 80%
    11:00 +19°C° 0 mm 2 mps 743 mmHg 74%
    12:00 +20°C° 0 mm 2 mps 743 mmHg 69%
    13:00 +21°C° 0 mm 2 mps 743 mmHg 64%
    14:00 +23°C° 0 mm 2 mps 743 mmHg 60%
    15:00 +21°C° 0 mm 2 mps 743 mmHg 60%
    16:00 +22°C° 0 mm 1 mps 743 mmHg 61%
    17:00 +22°C° 0 mm 1 mps 744 mmHg 62%
    18:00 +20°C° 0 mm 1 mps 744 mmHg 68%
    19:00 +18°C° 0 mm 1 mps 744 mmHg 75%
    20:00 +15°C° 0 mm 1 mps 744 mmHg 81%
    21:00 +15°C° 0 mm 1 mps 745 mmHg 83%
    22:00 +14°C° 0 mm 1 mps 745 mmHg 85%
    23:00 +13°C° 0 mm 1 mps 745 mmHg 86%

    Day after tomorrow, 17 August, Friday

    Time Temperature Precipitation Wind Pressure Humidity
    00:00 +13°C° 0 mm 1 mps 745 mmHg 87%
    01:00 +13°C° 0 mm 1 mps 746 mmHg 89%
    02:00 +12°C° 0 mm 1 mps 746 mmHg 90%
    03:00 +12°C° 0 mm 1 mps 746 mmHg 90%
    04:00 +12°C° 0 mm 1 mps 746 mmHg 90%
    05:00 +12°C° 0 mm 1 mps 747 mmHg 90%
    06:00 +15°C° 0 mm 1 mps 747 mmHg 82%
    07:00 +18°C° 0 mm 1 mps 747 mmHg 74%
    08:00 +20°C° 0 mm 1 mps 747 mmHg 66%
    09:00 +21°C° 0 mm 1 mps 747 mmHg 60%
    10:00 +23°C° 0 mm 1 mps 747 mmHg 54%
    11:00 +24°C° 0 mm 2 mps 747 mmHg 48%
    12:00 +25°C° 0 mm 2 mps 747 mmHg 46%
    13:00 +25°C° 0 mm 2 mps 747 mmHg 45%
    14:00 +25°C° 0 mm 2 mps 747 mmHg 43%
    15:00 +25°C° 0 mm 2 mps 747 mmHg 47%
    16:00 +25°C° 0 mm 1 mps 746 mmHg 52%
    17:00 +24°C° 0 mm 1 mps 746 mmHg 56%
    18:00 +22°C° 0 mm 1 mps 746 mmHg 63%
    19:00 +19°C° 0 mm 2 mps 746 mmHg 69%
    20:00 +16°C° 0 mm 2 mps 746 mmHg 76%
    21:00 +16°C° 0 mm 2 mps 746 mmHg 78%
    22:00 +15°C° 0 mm 2 mps 747 mmHg 80%
    23:00 +14°C° 0 mm 2 mps 747 mmHg 82%

    18 August, Saturday

    Time Temperature Precipitation Wind Pressure Humidity
    00:00 +14°C° 0 mm 2 mps 747 mmHg 83%
    01:00 +13°C° 0 mm 2 mps 747 mmHg 84%
    02:00 +13°C° 0 mm 2 mps 747 mmHg 84%
    03:00 +13°C° 0 mm 2 mps 747 mmHg 84%
    04:00 +12°C° 0 mm 2 mps 747 mmHg 85%
    05:00 +12°C° 0 mm 2 mps 747 mmHg 85%
    06:00 +14°C° 0 mm 2 mps 747 mmHg 78%
    07:00 +16°C° 0 mm 2 mps 747 mmHg 71%
    08:00 +18°C° 0 mm 2 mps 747 mmHg 65%
    09:00 +20°C° 0 mm 2 mps 747 mmHg 59%
    10:00 +22°C° 0 mm 3 mps 747 mmHg 53%
    11:00 +25°C° 0 mm 3 mps 747 mmHg 47%
    12:00 +25°C° 0 mm 3 mps 747 mmHg 46%
    13:00 +26°C° 0 mm 3 mps 746 mmHg 44%
    14:00 +26°C° 0 mm 3 mps 746 mmHg 42%
    15:00 +26°C° 0 mm 2 mps 746 mmHg 47%
    16:00 +25°C° 0 mm 2 mps 745 mmHg 51%
    17:00 +25°C° 0 mm 2 mps 745 mmHg 56%
    18:00 +23°C° 0 mm 2 mps 745 mmHg 64%
    19:00 +20°C° 0 mm 2 mps 745 mmHg 71%
    20:00 +18°C° 0 mm 2 mps 745 mmHg 79%
    21:00 +17°C° 0 mm 2 mps 745 mmHg 80%
    22:00 +17°C° 0 mm 2 mps 745 mmHg 81%
    23:00 +16°C° 0 mm 3 mps 745 mmHg 82%

    19 August, Sunday

    Time Temperature Precipitation Wind Pressure Humidity
    00:00 +16°C° 0 mm 3 mps 745 mmHg 83%
    01:00 +16°C° 0 mm 3 mps 745 mmHg 84%
    02:00 +16°C° 0 mm 3 mps 745 mmHg 85%
    03:00 +14°C° 0 mm 3 mps 745 mmHg 87%
    04:00 +14°C° 0 mm 3 mps 745 mmHg 88%
    05:00 +14°C° 0 mm 3 mps 744 mmHg 89%
    06:00 +17°C° 0 mm 3 mps 744 mmHg 83%
    07:00 +19°C° 0 mm 3 mps 744 mmHg 77%
    08:00 +20°C° 0 mm 3 mps 744 mmHg 71%
    09:00 +22°C° 0 mm 4 mps 744 mmHg 66%
    10:00 +23°C° 0 mm 4 mps 743 mmHg 60%
    11:00 +26°C° 0 mm 4 mps 743 mmHg 55%
    12:00 +26°C° 0.2 mm 4 mps 743 mmHg 55%
    13:00 +26°C° 0.2 mm 4 mps 742 mmHg 56%
    14:00 +26°C° 0.2 mm 4 mps 742 mmHg 57%
    15:00 +25°C° 0.9 mm 4 mps 742 mmHg 66%
    16:00 +24°C° 0.9 mm 3 mps 742 mmHg 76%
    17:00 +22°C° 0.9 mm 3 mps 741 mmHg 85%
    18:00 +20°C° 0.4 mm 2 mps 741 mmHg 89%
    19:00 +19°C° 0.4 mm 2 mps 741 mmHg 92%
    20:00 +17°C° 0.4 mm 2 mps 741 mmHg 95%
    21:00 +17°C° 0.2 mm 2 mps 741 mmHg 96%
    22:00 +16°C° 0.2 mm 2 mps 741 mmHg 96%
    23:00 +15°C° 0.2 mm 2 mps 741 mmHg 97%

    20 August, Monday

    Time Temperature Precipitation Wind Pressure Humidity
    00:00 +15°C° 0.1 mm 2 mps 742 mmHg 97%
    01:00 +15°C° 0.1 mm 2 mps 742 mmHg 98%
    02:00 +15°C° 0.1 mm 2 mps 742 mmHg 98%
    03:00 +15°C° 0.1 mm 2 mps 742 mmHg 98%
    04:00 +15°C° 0.1 mm 2 mps 742 mmHg 98%
    05:00 +14°C° 0.1 mm 2 mps 742 mmHg 98%
    06:00 +15°C° 0 mm 2 mps 742 mmHg 95%
    07:00 +15°C° 0 mm 2 mps 743 mmHg 93%
    08:00 +16°C° 0 mm 2 mps 743 mmHg 90%
    09:00 +17°C° 0 mm 2 mps 743 mmHg 80%
    10:00 +18°C° 0 mm 2 mps 743 mmHg 70%
    11:00 +20°C° 0 mm 2 mps 743 mmHg 60%
    12:00 +20°C° 0 mm 2 mps 743 mmHg 56%
    13:00 +21°C° 0 mm 2 mps 743 mmHg 52%
    14:00 +21°C° 0 mm 2 mps 743 mmHg 49%
    15:00 +21°C° 0 mm 2 mps 743 mmHg 52%
    16:00 +20°C° 0 mm 2 mps 743 mmHg 55%
    17:00 +20°C° 0 mm 2 mps 743 mmHg 58%
    18:00 +19°C° 0 mm 1 mps 743 mmHg 65%
    19:00 +16°C° 0 mm 1 mps 743 mmHg 72%
    20:00 +14°C° 0 mm 1 mps 743 mmHg 79%
    21:00 +14°C° 0 mm 1 mps 743 mmHg 80%
    22:00 +13°C° 0 mm 1 mps 743 mmHg 82%
    23:00 +13°C° 0 mm 1 mps 743 mmHg 83%
    Show more